sat.trackr.live / text

‹ back to catalog

STARLINK-31270

NORAD 59154 · 2024-044C

PAYLOAD ACTIVE UNKNOWN

§ Identity

Operator
Country
US
Launch date
2024-03-04
Launch site
AFETR
Launch vehicle
Mass (kg)
RCS (m²)

Purposes: comms

External: N2YO · Heavens-Above · Gunter

§ Orbital elements

Epoch: 2026-09-20T04:59:39.479712Z

Period
94.27 min
Inclination
43.0016°
Eccentricity
0.0001204
Mean motion
15.27576565 rev/d
Perigee alt
482.2 km
Apogee alt
483.9 km
Semi-major
6,861.2 km
B*
5.4854e-6
RAAN
88.5771°
Arg perigee
272.8803°
Mean anomaly
87.1911°
Rev number
14,334

§ Raw data

STARLINK-312701 59154U 24044C   26263.20809583 -.00000111  00000+0  54854-5 0  99962 59154  43.0016  88.5771 0001204 272.8803  87.1911 15.27576565143344

JSON: /api/v1/satellites/59154 · /tle

For live sub-satellite position, see the globe view (requires WebGL).

§ Visibility from observer

Set your observer location to see the next 7 days of passes ≥ 10°. The values pass through the URL so the page stays shareable.

No JS? Fill the form by hand. The geolocation button needs JavaScript.